[[{"header":{"parameterUnit":"m.s-1","parameterCategory":1,"la1":30.2991,"la2":30.254,"lo1":-89.0895,"lo2":-89.0444,"dy":0.0017,"dx":0.0017,"nx":28,"ny":28,"refTime":"2023-09-16T03:00:00:Z","depth":0,"parameterNumber":2,"parameterNumberName":"U-component_of_WINDS"},"data":[0,0,0,0,0,0,0,0,0,0,0,0,0,0,0,0,0,0,0,0,0,0,0,0,0,0,0,0,0,0,0,0,0,0,0,0,0,0,0,0,0,0,0,0,0,0,0,0,0,0,0,0,0,0,0,0,0,0,1.0593,1.0593,0,1.0629,1.063,1.063,1.062,1.062,1.0619,1.0618,1.0652,1.0654,1.0656,0,0,0,0,0,0,0,0,0,0,0,0,0,1.0512,1.0513,1.0593,1.0593,1.0594,1.0629,1.063,1.063,1.062,1.062,1.0619,1.0618,1.0652,1.0654,1.0656,0,0,0,0,0,0,0,0,0,0,0,0,0,1.0547,1.0514,1.0593,1.0593,1.0594,1.0629,1.063,1.063,1.0621,1.062,1.0619,1.0618,1.0651,1.0654,1.0656,1.0692,0,0,1.0663,1.0664,0,0,0,0,0,0,0,0,1.0545,1.055,1.0593,1.0593,1.0594,1.0619,1.0614,1.0651,1.0621,1.061,1.0618,1.0617,1.0642,1.0645,1.0654,1.0694,1.0695,1.0663,1.0665,1.0666,1.0666,0,0,0,0,0,0,0,1.0543,1.0549,1.0607,1.0593,1.0594,1.0591,1.0594,1.0621,1.0632,1.0611,1.0611,1.0615,1.0642,1.0652,1.0655,1.0695,1.0663,1.0665,1.0667,1.0668,1.0765,1.0766,0,0,0,0,0,0,1.0541,1.0547,1.0606,1.0608,1.0567,1.0593,1.0597,1.0612,1.0631,1.0633,1.0616,1.0615,1.0648,1.0652,1.0656,1.0698,1.0666,1.0668,1.0669,1.0764,1.0765,1.0766,0,0,0,0,0,0,1.0539,1.0546,1.0604,1.0577,1.0585,1.0596,1.0612,1.0613,1.0623,1.0635,1.0637,1.0624,1.0648,1.0653,1.0683,1.0699,1.0669,1.0671,1.0762,1.0764,1.0766,1.0784,0,0,0,0,0,0,1.0537,1.0545,1.056,1.0578,1.0586,1.0632,1.0613,1.0615,1.0628,1.0626,1.0643,1.0645,1.0647,1.0679,1.0685,1.0702,1.0673,1.0761,1.0763,1.0765,1.0781,1.0786,1.0789,0,0,0,0,0,1.0534,1.0563,1.0561,1.0568,1.0605,1.0633,1.0637,1.064,1.0629,1.0643,1.0651,1.0644,1.0697,1.0683,1.0689,1.0707,1.076,1.0762,1.0765,1.078,1.0785,1.0789,0,0,0,0,0,0,1.0546,1.0565,1.0563,1.0599,1.0615,1.0631,1.0649,1.0646,1.0664,1.0661,1.0663,1.0667,1.0698,1.0706,1.0689,1.0742,1.0727,1.0731,1.0736,1.0741,1.0744,1.0741,1.0675,0,0,0,0,0,1.0553,1.0575,1.0591,1.0621,1.0629,1.0638,1.065,1.0651,1.0667,1.0673,1.0682,1.0697,1.0716,1.0729,1.0748,1.0783,1.0786,1.0798,1.0802,1.0805,1.0808,1.0826,1.0831,1.0775,1.0775,1.0775,0,0,1.0567,1.0581,1.0594,1.0624,1.0636,1.0657,1.0643,1.0667,1.0683,1.0676,1.0705,1.0713,1.0729,1.0761,1.0776,1.0769,1.0825,1.0809,1.0811,1.0812,1.0829,1.0835,1.0839,1.0777,1.0776,1.0776,0,0,1.0604,1.0618,1.0644,1.0656,1.0675,1.068,1.0687,1.0704,1.0709,1.0738,1.0734,1.0752,1.0786,1.0797,1.0808,1.0849,1.0843,1.0855,1.0875,1.0892,1.0896,1.09,1.0913,1.0918,1.0858,1.0858,1.0858,0,1.0619,1.0653,1.0657,1.0681,1.0694,1.069,1.0716,1.0727,1.0751,1.0759,1.0751,1.0793,1.0804,1.0838,1.0848,1.0857,1.0863,1.0852,1.0896,1.09,1.0903,1.0916,1.0921,1.086,1.0859,1.0859,1.0859,0,1.067,1.0693,1.0712,1.0735,1.075,1.0775,1.0782,1.0796,1.0796,1.0802,1.0832,1.0844,1.0865,1.0874,1.0874,1.0908,1.0903,1.0895,1.0879,1.091,1.0921,1.0927,1.0861,1.0861,1.086,1.086,0,0,1.0714,1.074,1.0747,1.0757,1.0777,1.0795,1.0819,1.084,1.0852,1.0868,1.0887,1.0917,1.091,1.0921,1.0923,1.0938,1.0968,1.0928,1.0929,1.0934,1.1005,1.1009,1.1015,1.0965,1.0966,1.0967,1.1003,0,1.0752,1.0795,1.08,1.0838,1.0859,1.0856,1.0877,1.0891,1.0897,1.0915,1.0922,1.0942,1.0932,1.0939,1.0954,1.0961,1.0982,1.0959,1.0982,1.0982,1.0976,1.1021,1.1026,1.1059,1.1008,1.1009,1.1009,0,1.0801,1.0819,1.086,1.0877,1.0886,1.0905,1.0924,1.0942,1.0957,1.0961,1.0974,1.0973,1.0997,1.0981,1.1013,1.0997,1.1007,1.1012,1.1013,1.1014,1.0996,1.1022,1.107,1.1075,1.1017,1.1016,1.1016,0,1.0827,1.0862,1.0891,1.09,1.0921,1.0934,1.0943,1.0958,1.097,1.0987,1.0994,1.1014,1.1024,1.1038,1.1042,1.1031,1.1073,1.1059,1.1075,1.1075,1.1083,1.1082,1.1132,1.1092,1.1092,1.1092,1.1092,0,1.0867,1.0892,1.0903,1.092,1.0947,1.0952,1.0979,1.0987,1.1,1.1018,1.1017,1.1033,1.1038,1.1056,1.1059,1.1084,1.1089,1.1091,1.1091,1.109,1.109,1.1096,1.1093,1.1094,1.1093,1.1093,1.1093,0,1.09,1.0909,1.094,1.0957,1.0962,1.0981,1.0996,1.1012,1.1018,1.1041,1.1047,1.1057,1.1077,1.1083,1.1107,1.1109,1.1138,1.1137,1.1133,1.1132,1.1148,1.1146,1.1202,1.1209,1.1166,1.1167,1.1167,0,1.0925,1.0944,1.0963,1.0976,1.0986,1.1006,1.1019,1.1024,1.1037,1.1056,1.107,1.109,1.1107,1.1139,1.1147,1.1166,1.1164,1.1183,1.1167,1.1165,1.1162,1.116,1.1162,1.1185,1.1185,1.1186,1.1186,0,1.0966,1.097,1.0989,1.1009,1.1025,1.1041,1.1056,1.1066,1.1074,1.1088,1.1109,1.1122,1.1147,1.1167,1.1185,1.1194,1.119,1.1191,1.1196,1.1194,1.119,1.1191,1.1139,1.119,1.1189,1.1189,1.1189,1.1189,1.0995,1.1011,1.1027,1.1048,1.1061,1.1075,1.1091,1.11,1.1118,1.1139,1.1141,1.1164,1.1178,1.1203,1.1212,1.1229,1.1224,1.1231,1.1232,1.1233,1.1234,1.1189,1.1233,1.1233,1.1233,1.1232,1.1232,0,1.1035,1.1045,1.1065,1.1087,1.1103,1.11,1.1117,1.113,1.1151,1.1165,1.1181,1.1205,1.1224,1.1235,1.1253,1.1265,1.1264,1.1269,1.1268,1.1269,1.1239,1.1232,1.127,1.127,1.127,1.127,1.127,1.127,1.1057,1.1084,1.109,1.1123,1.1133,1.1155,1.1165,1.1178,1.1189,1.1216,1.1232,1.124,1.1252,1.1272,1.1289,1.1291,1.1297,1.1303,1.1305,1.1275,1.1271,1.1268,1.1262,1.1305,1.1305,1.1334,1.1334,1.1334]},{"header":{"parameterUnit":"m.s-1","parameterCategory":1,"la1":30.2991,"la2":30.254,"lo1":-89.0895,"lo2":-89.0444,"dy":0.0017,"dx":0.0017,"nx":28,"ny":28,"refTime":"2023-09-16T03:00:00:Z","depth":0,"parameterNumber":3,"parameterNumberName":"V-component_of_WINDS"},"data":[0,0,0,0,0,0,0,0,0,0,0,0,0,0,0,0,0,0,0,0,0,0,0,0,0,0,0,0,0,0,0,0,0,0,0,0,0,0,0,0,0,0,0,0,0,0,0,0,0,0,0,0,0,0,0,0,0,0,1.2718,1.2719,0,1.2795,1.2796,1.2796,1.281,1.2809,1.2809,1.2808,1.2883,1.2886,1.2888,0,0,0,0,0,0,0,0,0,0,0,0,0,1.2581,1.2583,1.2718,1.2719,1.272,1.2795,1.2796,1.2797,1.281,1.2809,1.2809,1.2808,1.2882,1.2885,1.2889,0,0,0,0,0,0,0,0,0,0,0,0,0,1.2647,1.2584,1.2718,1.2736,1.2738,1.2794,1.2796,1.2797,1.281,1.2809,1.2808,1.2808,1.2881,1.2885,1.2889,1.2931,0,0,1.2901,1.2902,0,0,0,0,0,0,0,0,1.2643,1.2652,1.2733,1.2735,1.2738,1.2792,1.2774,1.2842,1.2811,1.2783,1.2808,1.2807,1.2853,1.286,1.2876,1.2935,1.2938,1.2901,1.2903,1.2905,1.2906,0,0,0,0,0,0,0,1.2638,1.2649,1.2748,1.2734,1.2737,1.2739,1.2747,1.2787,1.2822,1.2785,1.2787,1.2795,1.2855,1.2872,1.2878,1.2939,1.2901,1.2904,1.2907,1.2908,1.3035,1.3036,0,0,0,0,0,0,1.2631,1.2645,1.2746,1.2751,1.2687,1.2742,1.2752,1.2775,1.2822,1.2828,1.2796,1.2796,1.2866,1.2873,1.288,1.2932,1.2905,1.2909,1.2911,1.3034,1.3035,1.3036,0,0,0,0,0,0,1.2628,1.264,1.2743,1.2698,1.2711,1.2746,1.2772,1.2777,1.2795,1.283,1.2836,1.2808,1.2865,1.2875,1.2918,1.2935,1.291,1.2914,1.3033,1.3034,1.3036,1.3036,0,0,0,0,0,0,1.2624,1.2639,1.2657,1.2698,1.2714,1.2781,1.2773,1.278,1.2802,1.2802,1.2843,1.2849,1.2865,1.2913,1.2922,1.294,1.2917,1.3031,1.3033,1.3035,1.3035,1.3038,1.304,0,0,0,0,0,1.2619,1.2653,1.2657,1.267,1.2737,1.2782,1.2791,1.281,1.2803,1.282,1.2843,1.2847,1.2931,1.2917,1.2928,1.2947,1.303,1.3033,1.3035,1.3034,1.3037,1.304,0,0,0,0,0,0,1.2612,1.2659,1.2664,1.2713,1.2744,1.2784,1.2807,1.2814,1.2846,1.2845,1.2866,1.2875,1.2917,1.2936,1.2919,1.2989,1.298,1.2985,1.2976,1.2979,1.2982,1.2976,1.292,0,0,0,0,0,1.2616,1.265,1.2689,1.2729,1.2744,1.2773,1.2793,1.2806,1.2837,1.285,1.2876,1.2905,1.2938,1.296,1.2992,1.3038,1.3046,1.3056,1.3058,1.306,1.3064,1.3088,1.3092,1.3044,1.3044,1.3044,0,0,1.2625,1.2655,1.2675,1.2728,1.2753,1.2786,1.2783,1.2819,1.2844,1.2855,1.2898,1.2917,1.2952,1.2996,1.3017,1.3013,1.3079,1.3063,1.3065,1.3067,1.3091,1.3095,1.3099,1.3046,1.3045,1.3045,0,0,1.2659,1.2685,1.2721,1.2745,1.2783,1.2802,1.281,1.285,1.2863,1.2907,1.2916,1.2944,1.3001,1.3025,1.3044,1.3085,1.3089,1.3094,1.3108,1.3131,1.3134,1.3138,1.3151,1.3156,1.3098,1.3098,1.3098,0,1.2665,1.2717,1.2738,1.2773,1.2795,1.2807,1.2842,1.2865,1.2911,1.2925,1.2921,1.2991,1.3015,1.3065,1.3074,1.309,1.3099,1.309,1.3132,1.3136,1.314,1.3152,1.3157,1.3098,1.3098,1.3098,1.3098,0,1.2722,1.2757,1.2781,1.2826,1.2851,1.2885,1.291,1.2932,1.2942,1.296,1.3003,1.3032,1.307,1.3083,1.3092,1.3133,1.3129,1.3128,1.3119,1.3144,1.3156,1.3162,1.3099,1.3099,1.3098,1.3098,0,0,1.2754,1.2809,1.2817,1.2837,1.2879,1.2906,1.294,1.2978,1.2996,1.3027,1.3055,1.3102,1.3101,1.3123,1.3135,1.3155,1.3184,1.3152,1.3153,1.3156,1.3228,1.3229,1.3234,1.3187,1.3188,1.3189,1.3225,0,1.2792,1.2855,1.2874,1.2926,1.2959,1.297,1.2999,1.3027,1.3045,1.3074,1.3093,1.3125,1.3122,1.3135,1.3155,1.3176,1.3199,1.3174,1.3212,1.3214,1.3203,1.3241,1.3242,1.3275,1.323,1.3231,1.3232,0,1.2845,1.2877,1.2933,1.2969,1.2983,1.301,1.3045,1.3073,1.3104,1.3115,1.3139,1.3149,1.3183,1.3173,1.3219,1.3202,1.3219,1.3231,1.3233,1.3237,1.3224,1.3245,1.3286,1.329,1.324,1.3239,1.3239,0,1.2862,1.2919,1.2959,1.2976,1.302,1.3038,1.3056,1.3087,1.3107,1.3138,1.3151,1.3184,1.3202,1.3227,1.3245,1.3236,1.329,1.3281,1.3299,1.3299,1.331,1.3309,1.3353,1.3321,1.3321,1.3321,1.3321,0,1.2902,1.2936,1.2967,1.2992,1.3029,1.305,1.3085,1.3104,1.3131,1.3158,1.3169,1.3194,1.3217,1.3245,1.3259,1.3294,1.3303,1.3312,1.3315,1.3311,1.3309,1.3322,1.332,1.3323,1.3322,1.3322,1.3322,0,1.2928,1.295,1.2995,1.3032,1.3042,1.3068,1.3099,1.3122,1.314,1.3174,1.3184,1.3211,1.3244,1.3264,1.3306,1.3315,1.3354,1.3357,1.3344,1.3346,1.3362,1.336,1.3416,1.3423,1.3387,1.3387,1.3387,0,1.2952,1.2978,1.3018,1.3037,1.3056,1.3088,1.3109,1.3129,1.315,1.3187,1.3205,1.3239,1.3267,1.3319,1.3342,1.3373,1.3376,1.3393,1.3381,1.3375,1.3375,1.3374,1.3376,1.3395,1.3396,1.3396,1.3396,0,1.2992,1.3002,1.3032,1.3067,1.3092,1.312,1.3147,1.3162,1.3187,1.321,1.3244,1.3266,1.3308,1.3341,1.3374,1.3392,1.3397,1.34,1.3405,1.3401,1.3392,1.3396,1.3349,1.3399,1.3398,1.3398,1.3398,1.3398,1.3017,1.304,1.3072,1.3105,1.3128,1.3153,1.3176,1.3197,1.3226,1.3263,1.3272,1.3307,1.3336,1.3381,1.3399,1.3426,1.3423,1.3432,1.3434,1.3435,1.3435,1.3388,1.3432,1.3432,1.3432,1.3432,1.3432,0,1.3057,1.3078,1.3108,1.3146,1.3172,1.3176,1.3206,1.3227,1.3258,1.3285,1.3312,1.335,1.3382,1.3406,1.3438,1.3454,1.3458,1.3462,1.3461,1.3464,1.3436,1.3428,1.3459,1.3459,1.3459,1.3459,1.3459,1.3459,1.3081,1.312,1.3133,1.3182,1.3202,1.3237,1.3254,1.3277,1.3298,1.334,1.3367,1.3382,1.3407,1.3441,1.3469,1.3475,1.3486,1.349,1.3496,1.347,1.3467,1.3464,1.3456,1.3492,1.3492,1.3522,1.3522,1.3523]}]]